When you browse on this site, cookies collect data to enhance your experience and personalize the content and advertising you see.
Visit our Privacy Policy to learn more. By continuing to use the site, you agree to this use of cookies and data.
  • en Suisse
  • Liste des pays
  • À 7 jours
  • Température de l'eau
  • Carte météo
  • Widgets météo
  • user-avatar
    Se connecter

    Météo par heure à Paris

    Ce jour, 17 Novembre, Dimanche

    Heure Température Précipitation Vent Pression Humidité
    00:00 +6°C° 0 mm 1 m/s 752 mmHg 86%
    01:00 +5°C° 0 mm 1 m/s 752 mmHg 87%
    02:00 +5°C° 0 mm 1 m/s 752 mmHg 87%
    03:00 +4°C° 0 mm 0 m/s 752 mmHg 88%
    04:00 +5°C° 0 mm 1 m/s 752 mmHg 87%
    05:00 +4°C° 0 mm 1 m/s 752 mmHg 86%
    06:00 +4°C° 0 mm 1 m/s 752 mmHg 86%
    07:00 +5°C° 0 mm 1 m/s 752 mmHg 84%
    08:00 +5°C° 0 mm 1 m/s 752 mmHg 82%
    09:00 +5°C° 0 mm 1 m/s 752 mmHg 80%
    10:00 +5°C° 0 mm 2 m/s 752 mmHg 77%
    11:00 +6°C° 0 mm 2 m/s 752 mmHg 73%
    12:00 +7°C° 0 mm 2 m/s 752 mmHg 70%
    13:00 +7°C° 0 mm 2 m/s 752 mmHg 71%
    14:00 +7°C° 0 mm 2 m/s 752 mmHg 72%
    15:00 +7°C° 0 mm 2 m/s 752 mmHg 73%
    16:00 +6°C° 0 mm 2 m/s 752 mmHg 76%
    17:00 +6°C° 0 mm 2 m/s 752 mmHg 79%
    18:00 +5°C° 0 mm 2 m/s 752 mmHg 82%
    19:00 +5°C° 0 mm 2 m/s 752 mmHg 83%
    20:00 +4°C° 0 mm 2 m/s 753 mmHg 85%
    21:00 +4°C° 0 mm 2 m/s 753 mmHg 86%
    22:00 +4°C° 0 mm 2 m/s 753 mmHg 86%
    23:00 +4°C° 0 mm 2 m/s 753 mmHg 87%

    Demain, 18 Novembre, Lundi

    Heure Température Précipitation Vent Pression Humidité
    00:00 +3°C° 0 mm 2 m/s 753 mmHg 88%
    01:00 +3°C° 0 mm 2 m/s 753 mmHg 88%
    02:00 +3°C° 0 mm 2 m/s 753 mmHg 88%
    03:00 +4°C° 0 mm 1 m/s 753 mmHg 87%
    04:00 +3°C° 0 mm 2 m/s 753 mmHg 87%
    05:00 +3°C° 0 mm 2 m/s 753 mmHg 86%
    06:00 +3°C° 0 mm 2 m/s 753 mmHg 85%
    07:00 +4°C° 0 mm 2 m/s 754 mmHg 84%
    08:00 +3°C° 0 mm 3 m/s 754 mmHg 83%
    09:00 +4°C° 0 mm 3 m/s 754 mmHg 83%
    10:00 +5°C° 0.3 mm 3 m/s 754 mmHg 83%
    11:00 +5°C° 0.3 mm 3 m/s 754 mmHg 84%
    12:00 +6°C° 0.3 mm 4 m/s 754 mmHg 85%
    13:00 +6°C° 0.5 mm 4 m/s 754 mmHg 86%
    14:00 +6°C° 0.5 mm 4 m/s 754 mmHg 87%
    15:00 +6°C° 0.5 mm 4 m/s 754 mmHg 89%
    16:00 +7°C° 0.3 mm 3 m/s 754 mmHg 88%
    17:00 +7°C° 0.3 mm 3 m/s 754 mmHg 86%
    18:00 +7°C° 0.3 mm 3 m/s 754 mmHg 85%
    19:00 +7°C° 0 mm 2 m/s 755 mmHg 82%
    20:00 +7°C° 0 mm 2 m/s 755 mmHg 79%
    21:00 +7°C° 0 mm 1 m/s 755 mmHg 76%
    22:00 +7°C° 0.1 mm 1 m/s 755 mmHg 78%
    23:00 +7°C° 0.1 mm 1 m/s 755 mmHg 81%

    Après-demain, 19 Novembre, Mardi

    Heure Température Précipitation Vent Pression Humidité
    00:00 +7°C° 0.1 mm 1 m/s 755 mmHg 83%
    01:00 +7°C° 0 mm 1 m/s 755 mmHg 82%
    02:00 +7°C° 0 mm 1 m/s 755 mmHg 81%
    03:00 +7°C° 0 mm 1 m/s 755 mmHg 80%
    04:00 +7°C° 0.1 mm 1 m/s 755 mmHg 80%
    05:00 +6°C° 0.1 mm 1 m/s 755 mmHg 80%
    06:00 +6°C° 0.1 mm 1 m/s 755 mmHg 80%
    07:00 +6°C° 0.1 mm 1 m/s 756 mmHg 80%
    08:00 +7°C° 0.1 mm 1 m/s 756 mmHg 80%
    09:00 +7°C° 0.1 mm 1 m/s 757 mmHg 80%
    10:00 +7°C° 0 mm 1 m/s 757 mmHg 75%
    11:00 +8°C° 0 mm 1 m/s 757 mmHg 69%
    12:00 +9°C° 0 mm 1 m/s 756 mmHg 63%
    13:00 +8°C° 0 mm 2 m/s 756 mmHg 64%
    14:00 +8°C° 0 mm 2 m/s 756 mmHg 65%
    15:00 +8°C° 0 mm 2 m/s 756 mmHg 65%
    16:00 +7°C° 0 mm 2 m/s 756 mmHg 70%
    17:00 +6°C° 0 mm 2 m/s 756 mmHg 74%
    18:00 +6°C° 0 mm 2 m/s 756 mmHg 79%
    19:00 +6°C° 0 mm 2 m/s 756 mmHg 81%
    20:00 +5°C° 0 mm 2 m/s 756 mmHg 83%
    21:00 +5°C° 0 mm 2 m/s 756 mmHg 86%
    22:00 +5°C° 0 mm 2 m/s 756 mmHg 86%
    23:00 +4°C° 0 mm 2 m/s 756 mmHg 87%

    20 Novembre, Mercredi

    Heure Température Précipitation Vent Pression Humidité
    00:00 +4°C° 0 mm 2 m/s 756 mmHg 88%
    01:00 +4°C° 0 mm 2 m/s 756 mmHg 87%
    02:00 +4°C° 0 mm 2 m/s 756 mmHg 87%
    03:00 +3°C° 0 mm 2 m/s 755 mmHg 86%
    04:00 +2°C° 0 mm 3 m/s 755 mmHg 86%
    05:00 +2°C° 0 mm 3 m/s 755 mmHg 85%
    06:00 +2°C° 0 mm 3 m/s 755 mmHg 85%
    07:00 +2°C° 0 mm 3 m/s 755 mmHg 82%
    08:00 +1°C° 0 mm 4 m/s 755 mmHg 79%
    09:00 +3°C° 0 mm 4 m/s 755 mmHg 77%
    10:00 +4°C° 0 mm 4 m/s 754 mmHg 73%
    11:00 +5°C° 0 mm 4 m/s 754 mmHg 70%
    12:00 +5°C° 0 mm 4 m/s 753 mmHg 67%
    13:00 +5°C° 0 mm 4 m/s 753 mmHg 68%
    14:00 +6°C° 0 mm 4 m/s 753 mmHg 69%
    15:00 +7°C° 0 mm 3 m/s 752 mmHg 70%
    16:00 +5°C° 0 mm 3 m/s 752 mmHg 74%
    17:00 +4°C° 0 mm 3 m/s 752 mmHg 77%
    18:00 +4°C° 0 mm 3 m/s 752 mmHg 81%
    19:00 +4°C° 0 mm 3 m/s 752 mmHg 81%
    20:00 +4°C° 0 mm 3 m/s 752 mmHg 82%
    21:00 +3°C° 0 mm 3 m/s 752 mmHg 82%
    22:00 +4°C° 0 mm 3 m/s 752 mmHg 81%
    23:00 +4°C° 0 mm 3 m/s 752 mmHg 80%

    21 Novembre, Jeudi

    Heure Température Précipitation Vent Pression Humidité
    00:00 +5°C° 0 mm 4 m/s 751 mmHg 79%
    01:00 +5°C° 0 mm 4 m/s 751 mmHg 79%
    02:00 +5°C° 0 mm 4 m/s 750 mmHg 78%
    03:00 +5°C° 0 mm 4 m/s 750 mmHg 78%
    04:00 +6°C° 0 mm 4 m/s 749 mmHg 78%
    05:00 +6°C° 0 mm 4 m/s 749 mmHg 79%
    06:00 +6°C° 0 mm 4 m/s 749 mmHg 79%
    07:00 +7°C° 0 mm 4 m/s 749 mmHg 78%
    08:00 +7°C° 0 mm 5 m/s 749 mmHg 77%
    09:00 +8°C° 0 mm 5 m/s 749 mmHg 76%
    10:00 +8°C° 0 mm 5 m/s 749 mmHg 75%
    11:00 +8°C° 0 mm 5 m/s 749 mmHg 74%
    12:00 +8°C° 0 mm 5 m/s 748 mmHg 73%
    13:00 +8°C° 0.9 mm 6 m/s 748 mmHg 77%
    14:00 +8°C° 0.9 mm 6 m/s 747 mmHg 81%
    15:00 +8°C° 0.9 mm 6 m/s 747 mmHg 85%
    16:00 +8°C° 0.2 mm 6 m/s 747 mmHg 85%
    17:00 +8°C° 0.2 mm 5 m/s 747 mmHg 85%
    18:00 +8°C° 0.2 mm 5 m/s 747 mmHg 84%
    19:00 +8°C° 0.2 mm 5 m/s 747 mmHg 85%
    20:00 +8°C° 0.2 mm 5 m/s 747 mmHg 86%
    21:00 +8°C° 0.2 mm 4 m/s 747 mmHg 87%
    22:00 +7°C° 0 mm 4 m/s 747 mmHg 87%
    23:00 +6°C° 0 mm 4 m/s 747 mmHg 88%

    22 Novembre, Vendredi

    Heure Température Précipitation Vent Pression Humidité
    00:00 +7°C° 0 mm 3 m/s 747 mmHg 89%
    01:00 +7°C° 0 mm 3 m/s 747 mmHg 90%
    02:00 +7°C° 0 mm 3 m/s 747 mmHg 90%
    03:00 +7°C° 0 mm 3 m/s 747 mmHg 91%
    04:00 +5°C° 0 mm 3 m/s 747 mmHg 91%
    05:00 +5°C° 0 mm 3 m/s 747 mmHg 90%
    06:00 +6°C° 0 mm 2 m/s 747 mmHg 90%
    07:00 +7°C° 0.1 mm 2 m/s 747 mmHg 90%
    08:00 +7°C° 0.1 mm 2 m/s 747 mmHg 89%
    09:00 +7°C° 0.1 mm 2 m/s 747 mmHg 88%
    10:00 +8°C° 0.9 mm 3 m/s 747 mmHg 89%
    11:00 +8°C° 0.9 mm 3 m/s 747 mmHg 89%
    12:00 +8°C° 0.9 mm 3 m/s 748 mmHg 90%
    13:00 +8°C° 0 mm 3 m/s 747 mmHg 88%
    14:00 +8°C° 0 mm 4 m/s 747 mmHg 87%
    15:00 +8°C° 0 mm 4 m/s 747 mmHg 85%
    16:00 +8°C° 0 mm 4 m/s 748 mmHg 85%
    17:00 +8°C° 0 mm 4 m/s 748 mmHg 84%
    18:00 +7°C° 0 mm 4 m/s 748 mmHg 84%
    19:00 +7°C° 0 mm 4 m/s 749 mmHg 84%
    20:00 +7°C° 0 mm 4 m/s 749 mmHg 84%
    21:00 +7°C° 0 mm 4 m/s 750 mmHg 84%
    22:00 +7°C° 0 mm 4 m/s 750 mmHg 85%
    23:00 +6°C° 0 mm 4 m/s 750 mmHg 87%
    Voir plus